{"data":{"norad_id":66990,"intl_designator":"2025-290A","name":"TJS-22","alt_names":[],"object_type":"PAYLOAD","status":"ACTIVE","operator":null,"country":"PRC","launch_date":"2025-12-09","launch_site_code":"XICLF","launch_vehicle":null,"mission":null,"orbit_class":"UNKNOWN","rcs_meters":null,"size_class":null,"mass_kg":null,"dimensions":null,"purposes":["comms"],"wikipedia_slug":null,"has_3d_model":false,"image_url":null,"decayed_at":null,"tle_current":{"epoch":"2026-09-20T03:33:03.793248Z","epoch_age_seconds":48792,"freshness":"FRESH","line1":"1 66990U 25290A   26263.14796057 -.00000012  00000+0  00000+0 0  9998","line2":"2 66990   1.3059 288.3600 0004137 323.2223 227.2033  1.00273060  2975","mean_motion":1.0027306,"eccentricity":0.0004137,"inclination_deg":1.3059,"raan_deg":288.36,"arg_perigee_deg":323.2223,"mean_anomaly_deg":227.2033,"bstar":0,"rev_number":297,"period_min":1436.0786436556,"perigee_km":35768.794134449,"apogee_km":35803.68093794,"semimajor_km":42164.374536194,"source":"CELESTRAK","updated_at":"2026-09-20T09:00:35.347438Z"}}}